EAGLET 1
1 43790U 18099AJ  24263.41289297  .00007543  00000-0  54323-3 0  9998
2 43790  97.5199 318.5624 0013433  18.3567 341.8141 15.04398682316433
ESEO
1 43792U 18099AL  24263.59705846  .00003832  00000-0  30893-3 0  9995
2 43792  97.5031 314.9774 0007222 358.0901   2.0294 15.00455624316353
CSIM
1 43793U 18099AM  24263.45883617  .00039019  00000-0  16962-2 0  9990
2 43793  97.5215 327.6907 0009600 345.0460  15.0491 15.22125165317087
JO-97
1 43803U 18099AX  24263.41756017  .00015386  00000-0  93948-3 0  9992
2 43803  97.5103 320.1104 0008240 348.3135  11.7902 15.10361640316903
Suomi 100
1 43804U 18099AY  24263.12655383  .00013121  00000-0  82463-3 0  9990
2 43804  97.5169 319.5867 0014080 344.3248  15.7543 15.09289797316831
ISAT
1 43879U 18111D   24263.24760393  .00020948  00000-0  11429-2 0  9996
2 43879  97.6076 168.6601 0014219  47.2399 313.0026 15.14294887313637
UWE-4
1 43880U 18111E   24263.50229447  .00020793  00000-0  11779-2 0  9993
2 43880  97.6001 168.6759 0017789  51.5856 308.6969 15.12901989313678
Sparrow
1 43881U 18111F   24263.18453656  .00021243  00000-0  11403-2 0  9994
2 43881  97.6197 170.6904 0012654  81.2211 279.0453 15.14888256313695
Prox-1
1 44339U 19036A   24263.51663404  .00014431  00000-0  23185-2 0  9992
2 44339  23.9996 337.2955 0007220 340.1141  19.9072 14.69923260279123
SONATE
1 44400U 19038Q   24263.74107823  .00040122  00000-0  97947-3 0  9990
2 44400  97.7158 262.4756 0017310 123.4131 236.8773 15.40591681288600
Taurus 1
1 44530U 19059C   24263.77540855  .00014128  00000-0  30884-2 0  9999
2 44530  98.5844  26.6295 0010957 129.1022 231.1152 14.57838713265538
Duchifat 3
1 44854U 19089C   24263.87655892  .00033165  00000-0  14411-2 0  9990
2 44854  36.9545 192.2596 0007539 207.7134 152.3214 15.21414726262608
TO-108
1 44881U 19093C   24263.84529274  .00002740  00000-0  33291-3 0  9999
2 44881  97.8216 338.7975 0014490  18.6382 341.5361 14.84251581257082
FloripaSat 1
1 44885U 19093G   24263.76967792  .00011070  00000-0  10889-2 0  9998
2 44885  97.8360 345.7125 0011627   6.7001 353.4371 14.92230383257467
RS-44
1 44909U 19096E   24263.63258469  .00000016  00000-0  19058-4 0  9995
2 44909  82.5223  41.9996 0217418 190.1385 169.5296 12.79734014221054
UPMSat 2
1 46276U 20061E   24263.16109749  .00029703  00000-0  76552-3 0  9997
2 46276  97.2871 328.5575 0002287 137.9821 222.1600 15.39150131224602
AmicalSat
1 46287U 20061R   24263.86083475  .00094871  00000-0  17509-2 0  9997
2 46287  97.3365 331.7406 0002718 214.5872 145.5202 15.48761163224158
SALSAT
1 46495U 20068K   24263.38417404  .00012922  00000-0  68652-3 0  9998
2 46495  97.8262 225.2211 0013063   2.3807 357.7484 15.15371011218567
UVSQ-SAT
1 47438U 21006AB  24263.22680990  .00228239  00000-0  17815-2 0  9998
2 47438  97.3091 326.0940 0006719 220.0201 140.0568 15.70958512203362
SOMP 2b
1 47445U 21006AJ  24263.13402764  .00132416  00000-0  14865-2 0  9990
2 47445  97.3054 323.5548 0006381 223.6197 136.4558 15.62179782203221
IDEASSat
1 47458U 21006AX  24263.21474296  .00105828  00000-0  14965-2 0  9990
2 47458  97.3185 323.7623 0006053 224.7548 135.3219 15.56146808203132
CubeSX-Sirius-HSE
1 47951U 21022V   24263.91133947  .00045702  00000-0  14606-2 0  9994
2 47951  97.4455 162.3412 0014066 148.5765 211.6320 15.32210588193041
CubeSX-HSE
1 47952U 21022W   24263.85591960  .00046063  00000-0  14626-2 0  9994
2 47952  97.4455 162.3989 0014104 147.7247 212.4860 15.32416346193048
KSU-Cubesat
1 47954U 21022Y   24263.23027703  .00054442  00000-0  14912-2 0  9995
2 47954  97.4462 163.6192 0013276 141.3806 218.8390 15.37047117192787
GRBAlpha
1 47959U 21022AD  24263.81507282  .00045477  00000-0  14418-2 0  9998
2 47959  97.4456 162.5217 0013903 148.1120 212.0966 15.32471311191867
Orbicraft-Zorkiy
1 47960U 21022AE  24263.85678031  .00052939  00000-0  15209-2 0  9995
2 47960  97.4500 164.2438 0013313 142.5312 217.6862 15.35563442192642
TUBIN
1 48900U 21059X   24263.81322807  .00034735  00000-0  10135-2 0  9990
2 48900  97.6578  51.5764 0006321 115.2356 244.9542 15.35245691179411
LEDSAT
1 49069U 21073D   24263.61225113  .00030519  00000-0  10409-2 0  9993
2 49069  97.4285 334.3736 0016092 309.4530  50.5286 15.30174584170862
CUTE
1 49263U 21088D   24263.46869478  .00036534  00000-0  14338-2 0  9994
2 49263  97.4871 329.1215 0013927 114.3051 245.9643 15.25544513163987
TeikyoSat 4
1 49396U 21102B   24263.67313164  .00005447  00000-0  38507-3 0  9991
2 49396  97.4501 305.3863 0012120 317.8962  42.1332 15.05227745156969
Z-Sat
1 49399U 21102E   24263.89347575  .00007808  00000-0  48332-3 0  9991
2 49399  97.4211 307.4133 0018132 293.6463  66.2863 15.09934063157272
KOSEN 1
1 49402U 21102H   24263.39667048  .00010533  00000-0  58831-3 0  9995
2 49402  97.4142 308.7431 0016336 275.4127  84.5241 15.13585888157381
HO-113
1 50466U 21131B   24263.84710645  .00001825  00000-0  59377-3 0  9991
2 50466  98.5248 348.4759 0004052 189.3546 170.7567 14.39970827143625
IRIS-A
1 51044U 22002BN  24263.75540000  .00043567  00000-0  11600-2 0  9993
2 51044  97.3742 330.2490 0005437  69.8680 290.3149 15.38053988148927
OreSat0
1 52017U 22026K   24263.62252203  .00762286  25412-3  19069-2 0  9991
2 52017  97.4760 284.0259 0008735 195.8777 164.2227 15.95702864140496
Planetum 1
1 52738U 22057G   24263.80441838  .00145911  00000-0  19828-2 0  9995
2 52738  97.5730  34.2799 0004740 207.0227 153.0781 15.57089433129201
Foresail-1
1 52766U 22057AL  24263.80123894  .00045165  00000-0  11855-2 0  9997
2 52766  97.5928  31.9695 0008655 159.0247 201.1354 15.38464470128967
SNUGLITE 2
1 52899U 22065F   24263.35591196  .00003243  00000-0  66368-3 0  9998
2 52899  98.1334  42.7800 0007212 212.5179 147.5579 14.61459884118012
IO-117
1 53106U 22080B   24262.04253631 -.00000003  00000-0  00000-0 0  9991
2 53106  70.1426 160.2682 0008012  86.6369 273.5207  6.42557475 51233
FO-118
1 54684U 22167C   24263.85545520  .00076433  00000-0  19308-2 0  9992
2 54684  97.6149  51.5278 0008669 180.8125 179.3107 15.39493591 98810
SSS-2B
1 56184U 23054G   24263.91010677  .00109455  00000-0  16887-2 0  9992
2 56184  97.3512 163.3323 0007369 142.9663 217.2100 15.53734015 80779
CIRBE
1 56188U 23054L   24263.20311695  .00591689  13433-3  21672-2 0  9991
2 56188  97.3360 167.0424 0010727 137.5078 222.7026 15.88242295 80982
SO-120
1 56992U 23084BU  24263.29768981  .00070731  00000-0  18578-2 0  9994
2 56992  97.5381  24.2795 0007921  45.8958 314.2937 15.38327117 70591
MRC-100
1 56993U 23084BV  24263.61087357  .00091822  00000-0  20820-2 0  9999
2 56993  97.5376  25.4229 0006532  34.8506 325.3167 15.42716003 70707
UmKA 1 (RS40S)
1 57172U 23091G   24263.86480141  .00010612  00000-0  66456-3 0  9996
2 57172  97.6016 315.0112 0017251 153.8986 206.3116 15.09435844 67760
CubeBel-2 (EU11S)
1 57175U 23091K   24263.88881467  .00015164  00000-0  91468-3 0  9995
2 57175  97.6016 315.1207 0015289 165.0510 195.1174 15.10741948 67773
VERONIKA
1 58261U 23174F   24263.83180680  .00041078  00000-0  15345-2 0  9990
2 58261  97.4518 338.0456 0010507 265.3466  94.6573 15.27196986 48125
KAFASAT
1 58317U 23174BP  24263.85990639  .00056625  00000-0  17965-2 0  9991
2 58317  97.4460 339.1530 0009960 238.9617 121.0648 15.32437577 48211
ENSO
1 58470U 23185J   24263.85984431  .00035381  00000-0  12751-2 0  9990
2 58470  97.4161 329.8303 0010032 303.9476  56.0810 15.28419322 44577
EIRSAT-1
1 58472U 23185L   24263.84755872  .00039232  00000-0  13598-2 0  9995
2 58472  97.4155 329.9709 0009577 303.7594  56.2734 15.29676210 44584
SO-121
1 58567U 23174CY  24263.18204153  .00168519  00000-0  29387-2 0  9990
2 58567  97.4415 340.1985 0011531 246.1728 113.8315 15.50039803 48226
SONATE-2
1 59112U 24043Q   24263.30587527  .00020702  00000-0  90393-3 0  9993
2 59112  97.4889  26.3758 0013545 326.9445  33.0943 15.22071909 30109
MESAT1
1 60209U 24125G   24263.48201891  .00022371  00000-0  96951-3 0  9999
2 60209  97.3113 114.1043 0025069 357.6128   2.4985 15.22101449 11741
GRBBeta
1 60237U 24128C   24263.58602363  .00007254  00000-0  62565-3 0  9990
2 60237  61.9926 273.5331 0017924 339.4332  20.6033 14.97975383 10738
Curium One
1 60242U 24128H   24263.42145017  .00010820  00000-0  93354-3 0  9990
2 60242  61.9834 274.3062 0018913 325.4193  34.5664 14.97579982 10718
ROBUSTA-3A
1 60243U 24128J   24263.43111335  .00010873  00000-0  94429-3 0  9990
2 60243  61.9897 274.4113 0017249 320.4068  39.5759 14.97343782 10710
CatSat
1 60246U 24125J   24263.64875349  .00014344  00000-0  62632-3 0  9993
2 60246  97.2945 115.4238 0049707 306.4839  53.1823 15.21090776  9885
SR-0 DemoSAT
1 60455U 24147B   24263.85493110  .00241517  00000-0  47419-2 0  9993
2 60455  37.3775  82.6468 0021782 301.1180  58.7447 15.45310196  5333
Binar 4
1 60952U 98067WS  24262.07641569  .00312162  00000-0  41554-2 0  9992
2 60952  51.6360 214.7413 0008951  20.1328 340.0015 15.56507040  3061
CosmoGirlSat
1 60953U 98067WT  24263.56311061  .00115406  00000-0  16773-2 0  9996
2 60953  51.6373 207.4184 0010874  20.8234 339.3198 15.54841169  3299
